Tracking 27188 objects as of 2-Apr-2023
HD Live streaming from Space Station
objects crossing your sky now

STARLINK-2443

Track STARLINK-2443 now!
10-day predictions
STARLINK-2443 is classified as:


NORAD ID: 48107
Int'l Code: 2021-027R
Perigee: 554.2 km
Apogee: 554.5 km
Inclination: 53.1 °
Period: 95.6 minutes
Semi major axis: 6925 km
RCS: Unknown
Launch date: April 7, 2021
Source: United States (US)
Launch site: AIR FORCE EASTERN TEST RANGE (AFETR)
Your satellite tracking list
Your tracking list is empty




NASA's NSSDC Master Catalog

Two Line Element Set (TLE):
1 48107U 21027R   23091.04751673  .00021539  00000-0  14607-2 0  9990
2 48107  53.0530 291.3822 0000195  47.1373 312.9632 15.06394185110870
Source of the keplerian elements: AFSPC